User: anonymous   Login
Location: Hickory_CSC
(35.7330°N, 81.3330°W)
Time: 03:21:46
(UTC-04:00)
Language:

Cosmos 1356 Rocket - Orbit

View from above orbital plane
View from above orbital plane
View from above satellite
View from above satellite

Ground track
Ground track

The orbit data is extracted from the following two-line orbital elements,

1 13154U 82039B   16211.50647412  .00000199  00000-0  14808-4 0  9990
2 13154  81.1820 234.6941 0039238 261.7180  97.9589 14.98091276855423
Epoch (UTC): 29 July 2016 12:09:19
Eccentricity: 0.0039238
inclination: 81.1820°
perigee height: 545 km
apogee height: 600 km
right ascension of ascending node: 234.6941°
argument of perigee: 261.7180°
revolutions per day: 14.98091276
mean anomaly at epoch: 97.9589°
orbit number at epoch: 85542

The dashed part of the orbit path shows where the satellite is in the earth's shadow,  

DLR